User: anonymous   Login
Location: Caltech
(34.1382°N, 118.1253°W)
Time: 05:23:08
(UTC-07:00)
Language:

Cosmos 1937 Rocket - Orbit

View from above orbital plane
View from above orbital plane
View from above satellite
View from above satellite

Ground track
Ground track

The orbit data is extracted from the following two-line orbital elements,

1 19039U 88029B   17174.92946870 -.00000009 +00000-0 +57315-5 0  9990
2 19039 074.0489 287.0096 0022699 098.5717 044.8575 14.38364359531539
Epoch (UTC): 23 June 2017 22:18:26
Eccentricity: 0.0022699
inclination: 74.0489°
perigee height: 748 km
apogee height: 780 km
right ascension of ascending node: 287.0096°
argument of perigee: 98.5717°
revolutions per day: 14.38364359
mean anomaly at epoch: 44.8575°
orbit number at epoch: 53153

The dashed part of the orbit path shows where the satellite is in the earth's shadow,  

DLR